FW5420 Weather Reports


Display with metric or nautical units.
time (UTC)temp
F
wind
direction
speed
MPH
gust
MPH
rain 1hr
in
rain 24hr
in
rain mn
in
humidity
%
barometer
mb
20260906133112 72 84 1.0 5.0 0.00 0.00 0.00 91 1017.4
20260906131610 72 46 3.0 5.0 0.00 0.00 0.00 91 1017.3
20260906130055 72 65 1.0 7.0 0.00 0.00 0.00 91 1017.3
20260906124550 72 81 1.0 7.0 0.00 0.00 0.00 91 1017.1
20260906123049 72 91 0.0 4.0 0.00 0.00 0.00 91 1016.9
20260906121549 72 51 1.0 6.0 0.00 0.00 0.00 91 1016.7
20260906120054 72 44 0.0 3.0 0.00 0.00 0.00 91 1016.7
20260906114542 72 61 1.0 4.0 0.00 0.00 0.00 91 1016.5
20260906113041 72 71 1.0 4.0 0.00 0.00 0.00 91 1016.2
20260906111540 72 68 0.0 2.0 0.00 0.00 0.00 91 1016.2
20260906110040 72 55 0.0 3.0 0.00 0.00 0.00 91 1016.1
20260906104539 72 92 0.0 3.0 0.00 0.00 0.00 91 1016.1
20260906103036 72 96 0.0 4.0 0.00 0.00 0.00 91 1015.9
20260906101536 72 78 0.0 4.0 0.00 0.00 0.00 91 1015.6
20260906100036 72 96 1.0 6.0 0.00 0.00 0.00 91 1015.4
20260906094533 72 102 0.0 4.0 0.00 0.00 0.00 91 1015.4
20260906093042 72 105 0.0 9.0 0.00 0.00 0.00 91 1015.3
20260906091531 72 101 0.0 8.0 0.00 0.00 0.00 90 1015.3
20260906090030 72 42 2.0 5.0 0.00 0.00 0.00 90 1015.2
20260906084529 72 126 0.0 3.0 0.00 0.00 0.00 89 1015.4
20260906083028 72 98 1.0 6.0 0.00 0.00 0.00 89 1015.2
20260906081528 73 47 2.0 9.0 0.00 0.00 0.00 88 1015.2
20260906080026 73 73 3.0 10.0 0.00 0.00 0.00 88 1015.1
20260906074523 73 113 2.0 8.0 0.00 0.00 0.00 89 1015.1
20260906073026 74 84 2.0 8.0 0.00 0.00 0.00 90 1015.2
20260906071521 74 47 2.0 8.0 0.00 0.00 0.00 90 1015.3
20260906070020 74 55 1.0 7.0 0.00 0.00 0.00 90 1015.4
20260906064522 74 102 2.0 5.0 0.00 0.00 0.00 90 1015.6
20260906063016 75 117 0.0 4.0 0.00 0.00 0.00 89 1015.5
20260906061514 75 93 1.0 4.0 0.00 0.00 0.00 89 1015.6
20260906060020 75 59 0.0 5.0 0.00 0.00 0.00 88 1015.5
20260906054508 76 63 2.0 5.0 0.00 0.00 0.00 88 1015.3
20260906053015 76 55 2.0 6.0 0.00 0.00 0.00 87 1015.1
20260906051503 77 78 1.0 5.0 0.00 0.00 0.00 86 1014.9
20260906050100 77 90 0.0 5.0 0.00 0.00 0.00 86 1014.7
20260906044558 78 84 0.0 6.0 0.00 0.00 0.00 85 1014.5
20260906043058 78 119 1.0 6.0 0.00 0.00 0.00 84 1014.5
20260906041556 79 46 1.0 14.0 0.00 0.00 0.00 84 1014.3
20260906040055 80 88 3.0 10.0 0.00 0.00 0.00 84 1014.2
20260906034553 80 117 2.0 13.0 0.00 0.00 0.00 84 1014.0
20260906033059 81 5 4.0 10.0 0.00 0.00 0.00 84 1013.9
20260906031558 81 71 4.0 12.0 0.00 0.00 0.00 85 1013.7
20260906030054 82 57 3.0 8.0 0.00 0.00 0.00 86 1013.7
20260906024549 82 65 3.0 9.0 0.00 0.00 0.00 85 1013.4
20260906023049 83 73 2.0 9.0 0.00 0.00 0.00 84 1013.2
20260906021557 84 59 2.0 7.0 0.00 0.00 0.00 84 1013.2
20260906020048 84 55 1.0 4.0 0.00 0.00 0.00 84 1013.0
20260906014549 84 344 0.0 3.0 0.00 0.00 0.00 84 1012.7
20260906013048 85 55 0.0 2.0 0.00 0.00 0.00 83 1012.5
20260906011602 85 57 0.0 0.0 0.00 0.00 0.00 81 1012.4
20260906010047 86 57 0.0 2.0 0.00 0.00 0.00 80 1012.3
20260906004546 87 355 0.0 5.0 0.00 0.00 0.00 79 1012.2
20260906003046 88 329 1.0 4.0 0.00 0.00 0.00 77 1012.2
20260906001546 88 355 2.0 4.0 0.00 0.00 0.00 75 1012.2
20260906000045 89 57 3.0 7.0 0.00 0.00 0.00 74 1012.2
20260905234545 91 45 2.0 8.0 0.00 0.00 0.00 70 1012.1
20260905233103 92 23 1.0 6.0 0.00 0.00 0.00 69 1012.1
20260905231551 93 327 2.0 9.0 0.00 0.00 0.00 67 1012.1
20260905230046 93 15 3.0 9.0 0.00 0.00 0.00 64 1011.9
20260905224604 94 59 2.0 9.0 0.00 0.00 0.00 64 1011.9
20260905223041 93 355 3.0 8.0 0.00 0.00 0.00 65 1011.9
20260905221542 94 40 3.0 9.0 0.00 0.00 0.00 65 1012.0
20260905220047 93 53 3.0 9.0 0.00 0.00 0.00 66 1011.9
20260905214541 94 66 5.0 9.0 0.00 0.00 0.00 66 1012.0
20260905213036 94 55 5.0 10.0 0.00 0.00 0.00 66 1011.9
20260905211533 93 340 3.0 9.0 0.00 0.00 0.00 67 1012.0
20260905210031 94 319 5.0 14.0 0.00 0.00 0.00 66 1012.1
20260905204523 95 355 5.0 11.0 0.00 0.00 0.00 62 1012.2
20260905203021 95 337 4.0 12.0 0.00 0.00 0.00 58 1012.3
20260905201526 95 347 6.0 10.0 0.00 0.00 0.00 58 1012.4
20260905200020 95 328 5.0 9.0 0.00 0.00 0.00 58 1012.5
20260905194519 95 36 2.0 10.0 0.00 0.00 0.00 59 1012.6
20260905193018 95 297 3.0 11.0 0.00 0.00 0.00 59 1012.8
20260905191518 95 14 1.0 10.0 0.00 0.00 0.00 59 1012.8
20260905190016 96 360 4.0 10.0 0.00 0.00 0.00 56 1012.7
20260905184513 95 43 2.0 9.0 0.00 0.00 0.00 57 1012.8
20260905183012 95 9 3.0 11.0 0.00 0.00 0.00 58 1013.0
20260905181510 95 16 4.0 9.0 0.00 0.00 0.00 59 1013.1
20260905180012 94 344 4.0 9.0 0.00 0.00 0.00 60 1013.3
20260905174513 94 277 2.0 10.0 0.00 0.00 0.00 61 1013.3
20260905173018 93 350 4.0 9.0 0.00 0.00 0.00 61 1013.6
20260905171509 94 360 3.0 8.0 0.00 0.00 0.00 62 1013.5
20260905170006 95 277 1.0 6.0 0.00 0.00 0.00 59 1013.8
20260905164501 94 23 2.0 7.0 0.00 0.00 0.00 63 1013.6
20260905163103 94 247 1.0 7.0 0.00 0.00 0.00 63 1013.6
20260905161556 93 283 0.0 5.0 0.00 0.00 0.00 64 1013.6
20260905160051 91 277 3.0 8.0 0.00 0.00 0.00 66 1013.8
20260905154547 91 235 2.0 7.0 0.00 0.00 0.00 68 1013.6
20260905153044 90 242 2.0 7.0 0.00 0.00 0.00 69 1013.6
20260905151543 89 355 0.0 3.0 0.00 0.00 0.00 68 1013.5
20260905150039 90 15 0.0 4.0 0.00 0.00 0.00 69 1013.4
20260905144541 88 269 2.0 4.0 0.00 0.00 0.00 72 1013.3
20260905143033 86 249 0.0 2.0 0.00 0.00 0.00 73 1013.3
20260905141530 85 247 3.0 5.0 0.00 0.00 0.00 74 1013.1
20260905140025 84 200 0.0 1.0 0.00 0.00 0.00 76 1013.2
20260905134523 83 200 0.0 2.0 0.00 0.00 0.00 77 1013.4